Location: Prairie Dale
(45.6972°N, 104.5033°W)
Time: 22:34:30
(UTC+00:00)

STARS - Pass Details

Date: 03 July 2022
Orbit: 620 x 637 km, 98.2° (Epoch: 07 August)

Event Time Altitude Azimuth Distance (km) Brightness Sun altitude
Rises 05:26:09 0° 17° (NNE) 2,931 ? -18.0°
Reaches altitude 10° 05:28:25 10° 22° (NNE) 2,015 ? -18.1°
Maximum altitude 05:32:43 56° 101° (E) 750 ? -18.4°
Enters shadow 05:33:57 41° 154° (SSE) 918 ? -18.5°
